User: anonymous   Login
Location: Unspecified
(0.0000°N, 0.0000°E)
Time: 05:25:45
(UTC+00:00)
Language:

SAR-Lupe-2 - Orbit

View from above orbital plane
View from above orbital plane
View from above satellite
View from above satellite

Ground track
Ground track

The orbit data is extracted from the following two-line orbital elements,

1 31797U 07030A   17178.00888302 0.00001300  00000-0  48684-4 0    01
2 31797  98.0809 288.7035 0003002 357.3528   2.6471 15.27314254    08
Epoch (UTC): 27 June 2017 00:12:47
Eccentricity: 0.0003002
inclination: 98.0809°
perigee height: 482 km
apogee height: 486 km
right ascension of ascending node: 288.7035°
argument of perigee: 357.3528°
revolutions per day: 15.27314254
mean anomaly at epoch: 2.6471°
orbit number at epoch: 0

The dashed part of the orbit path shows where the satellite is in the earth's shadow,  

DLR